Regional Weather Roundup
Issued by NWS

Home | Current Version | Previous Version | Graphics & Text | Print | Product List | Glossary On
Versions: 1 2 3 4 5 6 7 8 9 10 11 12 13 14 15 16 17 18 19 20 21 22 23 24 25 26 27 28 29 30 31 32 33 34 35 36 37 38 39 40 41 42 43 44 45 46 47 48 49 50
000
ASUS45 KBOU 171207
RWRCO

WEATHER ROUNDUP FOR COLORADO
NATIONAL WEATHER SERVICE DENVER/BOULDER CO
600 AM MDT FRI APR 17 2015

NOTE: "FAIR" INDICATES FEW OR NO CLOUDS BELOW 12000 FEET WITH NO
SIGNIFICANT WEATHER AND/OR OBSTRUCTIONS TO VISIBILITY.

COZ001>005-013-030-031-171300-
...NORTHWEST COLORADO...

CITY           SKY/WX    TMP DP  RH WIND       PRES   REMARKS
CRAIG          CLOUDY    33  32  96 S3        30.01F
HAYDEN         CLOUDY    32  28  86 SW3       29.99F VSB 1/2
MEEKER         FOG       32  31  96 MISG      29.98F VSB 1/4
MOUNT WERNER   NOT AVBL
STEAMBOAT SPGS CLOUDY    32  31  96 CALM      30.00R
WALDEN         CLOUDY    30  27  86 N6        30.05S WCI  24
$$

COZ006>008-011-171300-
...WEST CENTRAL VALLEYS...

CITY           SKY/WX    TMP DP  RH WIND       PRES   REMARKS
GRAND JUNCTION LGT RAIN  38  38 100 SE8       30.00R
MONTROSE       CLOUDY    33  30  88 E8        30.04S WCI  26
EAGLE          MOCLDY    34  34 100 CALM      29.99S
RIFLE          LGT RAIN  38  35  89 S3        29.98R
DELTA          LGT SNOW  34  33  97 CALM      30.05R VSB 1
NUCLA          LGT SNOW  32  32 100 SE6       30.08S WCI  26
$$

COZ017>023-064>068-171300-
...SOUTHWEST COLORADO...

CITY           SKY/WX    TMP DP  RH WIND       PRES   REMARKS
DURANGO        MOCLDY    24  11  57 E5        30.03S WCI  18
CORTEZ         PTCLDY    29  17  61 CALM      30.05S
PAGOSA SPRINGS MOCLDY    21  14  72 CALM      30.04R
TELLURIDE      LGT SNOW  23  22  96 CALM      30.02S
WOLF CREEK PAS MOCLDY     9   9 100 SW18      30.00F WCI -10
$$

COZ009-010-012-014-032>034-037-058>063-171300-
...CENTRAL COLORADO...

CITY           SKY/WX    TMP DP  RH WIND       PRES   REMARKS
ASPEN          LGT SNOW  30  29  96 CALM      29.93F FOG
BUENA VISTA    LGT SNOW  30  28  94 SW8       29.95F WCI  22
COPPER MTN     LGT SNOW  25  19  80 N8G25     30.00S VSB 3/4 WCI  16
BERTHOUD PASS  SNOW      19  10  68 MISG      30.04F VSB 1/2
COTTONWOOD PAS SNOW      30  28  93 SE8       29.96F VSB 1/2 WCI  23
GUNNISON       CLOUDY    28  25  86 CALM      30.01F
KREMMLING      LGT SNOW  32  30  93 CALM      30.02S VSB 3/4
LEADVILLE      LGT SNOW  24  22  91 VRB3      29.94F FOG
MONARCH PASS   CLOUDY    16  14  93 MISG      30.06R
SALIDA         CLOUDY    32  31  96 W12       30.04F VSB 3/4 WCI  23
SUNLIGHT       CLOUDY   N/A N/A N/A NE5       30.01F FOG
WILKERSON PASS CLOUDY   N/A N/A N/A E10G25    29.99S
$$

COZ069>075-171300-
...SAN LUIS VALLEY/SANGRE DE CRISTO MOUNTAINS...

CITY           SKY/WX    TMP DP  RH WIND       PRES   REMARKS
ALAMOSA        MOCLDY    25  19  78 S12       29.99S WCI  14
LA VETA PASS   LGT SNOW  19  16  86 MISG      29.97S VSB 1
SAGUACHE       LGT SNOW  28  27  93 CALM      30.01S
$$

COZ035-036-038>040-171300-
...NORTHERN COLORADO FRONT RANGE...

CITY           SKY/WX    TMP DP  RH WIND       PRES   REMARKS
DENVER INTL AP FOG       34  34 100 W10       30.02F VSB 1/4 WCI  26
DMNS CITY PARK   N/A     35  35  99 NW8       30.01F WCI  29
AURORA         FOG       32  32 100 W6        30.03F VSB 3/4 WCI  26
FRONT RANGE AP CLOUDY    36  36 100 SW9       30.03S FOG
ERIE MUNI ARPT HVY RAIN  37  37 100 NW6       30.04S
BOULDER MUN AP RAIN      37  37 100 NW6       30.04F
CENTENNIAL     FOG       33  33 100 W3        30.03R VSB 1/2
BROOMFIELD     LGT RAIN  36  36 100 NW17      30.03F
FORT COLLINS   CLOUDY    39  36  87 N14       30.07F
LONGMONT       MIX PCPN  41  39  93 N12G25    30.06S
$$

COZ041-046-047-076>085-087-088-171300-
...PIKES PEAK/PALMER DIVIDE AND SOUTHERN FOOTHILLS...

CITY           SKY/WX    TMP DP  RH WIND       PRES   REMARKS
COLO. SPRINGS  LGT RAIN  35  33  92 N8        29.98F WCI  29
A. F. ACADEMY  FLURRIES  33  32  99 NW13      29.98F WCI  23
ELLICOTT       LGT RAIN N/A N/A N/A E17G30    29.96F
FALCON         LGT RAIN  34  33  98 N14       29.99F WCI  24
FORT CARSON    LGT RAIN  35  34  99 N16       29.95F WCI  24
LIMON          CLOUDY    41  40  96 E17G23    29.99F
MONUMENT HILL  LGT SNOW  30  30 100 NW6       29.99F VSB 3/4 WCI  24
TRINIDAD       CLOUDY    37  36  96 MISG      29.99R FOG
$$

COZ042>045-048>051-090-091-171300-
...NORTHEAST COLORADO...

CITY           SKY/WX    TMP DP  RH WIND       PRES   REMARKS
GREELEY ARPT   CLOUDY    43  36  75 NE15      30.04F
AKRON          CLOUDY    45  44  97 E12       30.01F
BURLINGTON     FOG       49  47  93 E10       30.00S VSB 1/2
WRAY           LGT RAIN N/A N/A N/A E12       30.01F
STERLING       CLOUDY    46  46 100 CALM      30.01F
HOLYOKE        DRIZZLE   52  48  87 NE15      30.03F
FORT MORGAN    CLOUDY    46  45  97 NE7       30.01F
$$

COZ086-089-092>099-171300-
...SOUTHEAST COLORADO...

CITY           SKY/WX    TMP DP  RH WIND       PRES   REMARKS
PUEBLO         LGT RAIN  42  41  96 E6        29.94F
LA JUNTA       CLOUDY    45  43  93 S7        29.95S
LAMAR          CLOUDY    51  49  92 SE10      29.95R
SPRINGFIELD      N/A     48  48 100 SE7       29.97S
$$



USA.gov is the U.S. government's official web portal to all federal, state and local government web resources and services.